DW6376 Weather Reports


Display with metric or nautical units.
time (UTC)temp
F
wind
direction
speed
MPH
gust
MPH
rain 1hr
in
rain 24hr
in
rain mn
in
humidity
%
barometer
mb
20260505183010 52 227 0.0 0.0 0.00 0.00 0.00 61 1009.1
20260505181508 51 227 0.0 0.0 0.00 0.00 0.00 62 1009.1
20260505180015 51 227 0.0 0.0 0.00 0.00 0.00 62 1009.1
20260505174507 51 227 0.0 0.0 0.00 0.00 0.00 66 1009.2
20260505173006 50 227 0.0 0.0 0.00 0.00 0.00 70 1009.2
20260505171506 50 227 0.0 0.0 0.00 0.00 0.00 69 1009.3
20260505170005 50 227 0.0 0.0 0.00 0.00 0.00 67 1009.2
20260505164553 49 227 0.0 0.0 0.00 0.00 0.00 68 1009.1
20260505163051 49 227 0.0 0.0 0.00 0.00 0.00 71 1008.9
20260505161554 49 227 0.0 0.0 0.00 0.00 0.00 72 1008.9
20260505153046 48 227 0.0 0.0 0.00 0.00 0.00 72 1008.5
20260505151546 48 227 0.0 0.0 0.00 0.00 0.00 75 1008.3
20260505124506 52 227 0.0 0.0 0.00 0.00 0.00 62 1006.4
20260505123014 52 227 0.0 0.0 0.00 0.00 0.00 60 1006.1
20260505121505 52 227 0.0 0.0 0.00 0.00 0.00 60 1006.1
20260505120005 52 227 0.0 0.0 0.00 0.00 0.00 67 1006.0
20260505114501 52 227 0.0 0.0 0.00 0.00 0.00 67 1006.2
20260505113100 52 227 0.0 0.0 0.00 0.00 0.00 68 1006.1
20260505111600 52 227 0.0 0.0 0.00 0.00 0.00 69 1006.2
20260505101600 53 227 0.0 0.0 0.00 0.00 0.00 69 1006.2
20260505100059 53 227 0.0 0.0 0.00 0.00 0.00 67 1006.1
20260505094541 54 227 0.0 0.0 0.00 0.00 0.00 68 1006.1
20260505093041 54 227 0.0 0.0 0.00 0.00 0.00 66 1006.1
20260505091541 54 227 0.0 0.0 0.00 0.00 0.00 65 1006.1
20260505090040 54 227 0.0 0.0 0.00 0.00 0.00 62 1006.1
20260505084528 53 227 0.0 0.0 0.00 0.00 0.00 64 1006.0
20260505083026 53 227 0.0 0.0 0.00 0.00 0.00 64 1006.3
20260505081524 53 227 0.0 0.0 0.00 0.00 0.00 67 1006.2
20260505080023 53 227 0.0 0.0 0.00 0.00 0.00 69 1006.3
20260505074522 54 227 0.0 0.0 0.00 0.00 0.00 69 1006.5
20260505073032 54 227 0.0 0.0 0.00 0.00 0.00 68 1006.5
20260505071515 54 227 0.0 0.0 0.00 0.00 0.00 67 1006.8
20260505070015 55 227 0.0 0.0 0.00 0.00 0.00 66 1006.9
20260505064502 55 227 0.0 0.0 0.00 0.00 0.00 66 1007.2
20260505063002 55 227 0.0 0.0 0.00 0.00 0.00 64 1007.2
20260505061505 55 227 0.0 0.0 0.00 0.00 0.00 64 1007.2
20260505060001 55 227 0.0 0.0 0.00 0.00 0.00 66 1007.3
20260505054601 56 227 0.0 0.0 0.00 0.00 0.00 66 1007.3
20260505053100 56 227 0.0 0.0 0.00 0.00 0.00 65 1007.3
20260505051559 56 227 0.0 0.0 0.00 0.00 0.00 63 1007.4
20260505041544 58 345 0.0 0.0 0.00 0.00 0.00 61 1006.9
20260505040044 60 344 0.0 0.0 0.00 0.00 0.00 58 1006.5
20260505034547 60 344 0.0 0.0 0.00 0.00 0.00 52 1006.0
20260505033043 61 344 0.0 0.0 0.00 0.00 0.00 50 1005.5
20260505031547 62 332 0.0 0.0 0.00 0.00 0.00 42 1005.1
20260505030043 62 328 0.0 0.0 0.00 0.00 0.00 40 1004.9
20260505024528 63 328 0.0 0.0 0.00 0.00 0.00 39 1004.5
20260505023028 63 328 0.0 0.0 0.00 0.00 0.00 41 1004.2
20260505021532 64 10 0.0 0.0 0.00 0.00 0.00 41 1004.2
20260505020031 64 10 0.0 0.0 0.00 0.00 0.00 39 1003.9
20260505014527 65 295 0.0 0.0 0.00 0.00 0.00 40 1004.0
20260505013029 65 295 0.0 0.0 0.00 0.00 0.00 38 1003.9
20260505011532 66 295 0.0 0.0 0.00 0.00 0.00 37 1004.0
20260505010033 67 295 0.0 0.0 0.00 0.00 0.00 36 1004.0
20260505004512 68 294 0.0 0.0 0.00 0.00 0.00 34 1004.2
20260505003012 69 290 0.0 0.0 0.00 0.00 0.00 33 1004.1
20260505001511 69 290 0.0 0.0 0.00 0.00 0.00 33 1004.1
20260505000014 69 290 0.0 0.0 0.00 0.00 0.00 32 1004.1
20260504234510 71 290 0.0 0.0 0.00 0.00 0.00 32 1004.0
20260504233010 72 290 0.0 0.0 0.00 0.00 0.00 31 1003.8
20260504231508 72 290 0.0 0.0 0.00 0.00 0.00 30 1003.9
20260504230007 73 302 0.0 0.0 0.00 0.00 0.00 30 1004.0
20260504224553 73 286 0.0 0.0 0.00 0.00 0.00 30 1004.2
20260504223100 73 313 0.0 0.0 0.00 0.00 0.00 29 1004.4
20260504221602 73 331 0.0 0.0 0.00 0.00 0.00 29 1004.5
20260504220049 74 360 0.0 0.0 0.00 0.00 0.00 29 1004.6
20260504214558 74 17 1.0 0.0 0.00 0.00 0.00 26 1004.7
20260504213100 74 57 1.0 0.0 0.00 0.00 0.00 27 1004.6
20260504211550 74 61 0.0 0.0 0.00 0.00 0.00 26 1004.4
20260504210047 75 63 1.0 0.0 0.00 0.00 0.00 26 1004.5
20260504204543 74 52 1.0 0.0 0.00 0.00 0.00 26 1004.6
20260504203043 73 50 0.0 0.0 0.00 0.00 0.00 25 1004.7
20260504201528 73 51 1.0 0.0 0.00 0.00 0.00 25 1004.8
20260504200026 73 55 1.0 0.0 0.00 0.00 0.00 28 1005.0
20260504194530 72 55 0.0 0.0 0.00 0.00 0.00 27 1005.2
20260504193020 72 46 0.0 0.0 0.00 0.00 0.00 31 1005.4
20260504191527 71 38 1.0 0.0 0.00 0.00 0.00 31 1005.5
20260504190014 70 38 0.0 0.0 0.00 0.00 0.00 30 1005.9
20260504184516 69 38 0.0 0.0 0.00 0.00 0.00 31 1006.2